STARLINK-5279 (54165 NORAD) Tracking and Keplerian Element Data

This shows tracking and keplerian element data for the satellite.

Feedback or suggestion? Click here.




ElementValue
Catalog54165
NameSTARLINK-5279
Epoch Orbit383
Epoch Day325.25001157
Epoch Year2022
RAAN24.4501
Inclination53.2177
Eccentricity0.0001477
Argument of Perigee53.299
Mean Anonmoly157.4218
Mean Motion15.57966669
Decay Rate-0.01218459
L11 54165U 22141J 22325.25001157 -.01218459 00000+0 -17831-1 0 9998
L22 54165 53.2177 24.4501 0001477 53.2990 157.4218 15.57966669 3833



Live tracking and technical data element details for STARLINK-5279 (NORAD 54165). STARLINK-5279 can be tracked NOW for your location showing map with azimuth and elevation plus other details from your city location.







IsCatalogInMostPopularTable: catalog: 54165, numindb: 7
Update: records affected: 1



GetName: 54165 STARLINK-5279

Hit Count: updated at: Sun, 04 Dec 2022 22:14:28 GMT